Wind_Speed
29 31 31 28 27 30 31 30 27 25 26 26 26 26 24 23 21 17 17 21 20 17 18 19 18 17 16 17 19 17 15 16 18 20 20 17 14 16 16 15 14 10 9 10 12 15 16 18 19 19 19 19 19 20 21 20 19 18 18 19 19 18 18 18 17 17 16 16 14 13 12 11 10 10 10 10 11 10 10 9 8 6 5 4 3 3
32 30 24 21 25 30 32 32 31 30 29 28 29 27 22 23 23 19 18 18 20 18 17 18 20 21 19 18 18 18 19 20 19 18 22 21 16 17 18 15 14 11 7 10 14 15 15 18 20 19 19 19 19 21 22 22 21 20 20 20 20 19 19 19 19 19 18 17 15 13 12 11 11 11 11 11 11 11 10 9 8 7 6 5 3 2
32 25 19 22 26 30 33 35 35 34 32 31 32 30 25 24 23 21 18 18 23 21 17 19 21 22 21 19 18 19 24 25 19 17 23 26 19 16 17 15 14 14 10 12 16 14 13 17 20 20 20 20 20 22 23 23 23 22 21 20 20 20 21 21 20 19 18 17 15 13 12 12 12 12 11 11 11 11 11 10 9 7 6 4 3 2
28 20 20 25 26 29 32 34 36 36 35 35 35 34 30 26 23 21 17 20 26 22 19 22 21 19 19 18 19 19 23 27 25 22 24 27 22 15 15 16 15 17 15 15 16 12 10 16 20 21 21 21 21 22 22 22 23 22 22 21 21 21 21 21 21 20 18 16 15 13 13 13 13 12 12 12 12 12 11 10 9 7 6 5 3 2
26 22 24 27 27 28 30 33 36 37 37 37 37 36 32 29 27 22 19 21 25 24 23 21 20 21 21 22 23 20 21 24 26 29 27 25 24 17 15 18 17 18 18 16 13 10 10 16 21 22 22 22 21 22 22 22 22 23 23 23 23 23 23 22 21 20 18 16 15 15 15 14 14 14 14 14 13 12 11 10 9 8 7 6 4 3
28 27 29 29 29 28 29 32 35 36 37 38 38 37 34 33 30 26 24 24 24 27 27 23 23 24 22 24 25 22 24 25 24 31 34 29 26 20 16 18 18 18 18 16 13 11 12 16 21 23 22 22 22 22 23 23 24 24 25 25 25 25 24 23 22 20 18 17 17 17 17 17 17 16 15 14 13 12 11 11 10 9 8 6 5 4
31 32 33 31 29 29 30 32 33 36 38 39 39 36 35 36 34 29 27 25 27 28 26 26 27 24 21 22 23 23 26 26 23 28 34 33 28 22 17 18 19 19 18 16 14 13 13 15 19 23 23 22 22 22 23 24 24 24 24 25 25 25 24 23 21 19 18 18 19 19 19 18 18 16 15 13 13 13 12 12 11 10 8 7 5 4
34 34 34 32 31 31 31 31 31 34 38 39 37 36 37 38 38 36 31 26 26 26 26 27 27 27 26 24 25 25 26 26 24 25 30 35 31 23 19 20 20 21 19 16 15 14 16 17 20 24 24 23 23 23 23 22 23 23 24 24 24 24 23 22 21 20 20 20 21 20 20 19 17 16 15 14 14 14 13 12 12 11 9 7 6 4
33 34 35 34 33 33 32 31 31 34 37 37 36 38 39 39 40 39 37 33 28 29 31 28 28 32 30 27 27 27 26 27 27 26 28 38 38 27 23 23 21 20 19 18 16 15 18 20 22 26 26 25 24 22 22 22 22 23 23 24 23 23 22 21 20 21 21 22 22 21 20 18 17 16 16 16 15 14 14 13 12 11 9 7 6 5
35 36 36 36 36 35 33 31 32 34 35 35 37 39 39 39 40 40 41 40 36 38 39 32 30 34 32 29 26 24 26 23 22 23 26 37 42 29 23 22 20 20 20 20 18 16 19 22 23 25 26 25 24 23 22 22 22 22 23 22 22 21 21 20 20 21 22 23 22 21 19 18 17 16 16 16 15 15 14 14 12 11 9 8 7 6
38 37 38 39 39 37 34 32 32 33 32 34 38 39 39 40 41 40 40 42 43 46 45 37 36 40 39 34 23 22 27 24 23 25 25 34 37 27 22 20 20 22 21 21 21 18 19 20 20 20 21 22 22 22 22 21 20 20 20 20 20 20 20 20 21 21 23 23 22 21 19 18 17 17 16 16 15 15 14 14 13 12 10 9 9 7
41 42 42 41 40 38 35 34 34 33 33 36 38 39 41 40 39 40 41 44 48 48 45 43 43 44 44 38 27 26 31 29 29 27 26 33 33 27 25 21 20 23 23 23 23 21 18 17 16 15 18 21 20 18 18 18 19 19 19 20 20 20 20 20 21 22 23 23 22 20 19 18 18 17 17 16 16 15 15 14 13 13 12 11 10 9
43 43 43 41 40 38 37 37 37 37 38 38 38 40 40 38 40 44 45 47 47 43 43 46 46 46 45 40 32 30 32 33 28 27 31 35 35 32 28 25 24 24 24 24 23 21 18 16 15 15 19 22 19 17 17 17 18 19 19 20 19 19 20 20 21 22 22 23 21 20 19 18 18 18 18 17 16 15 15 14 14 14 13 12 11 10
43 43 42 42 41 40 40 41 41 42 41 39 39 39 40 42 44 44 42 43 42 40 43 45 45 47 44 36 32 32 33 32 28 26 28 29 33 32 25 25 29 27 25 24 24 23 19 16 15 17 21 23 20 18 19 19 19 20 20 20 19 19 20 20 21 22 22 22 22 21 20 19 18 18 18 17 16 15 15 14 14 14 14 13 12 11
46 46 44 43 44 43 42 43 42 41 41 39 39 39 40 44 43 38 37 38 38 39 42 43 44 44 38 30 30 33 34 32 30 28 22 22 31 27 18 21 29 29 27 25 25 25 22 19 18 19 21 22 20 19 19 20 20 21 21 21 21 21 20 20 20 21 22 22 22 21 20 18 17 18 19 18 16 15 15 14 14 14 14 14 13 12
49 48 44 44 45 44 43 42 40 41 43 42 40 41 41 40 38 36 35 35 35 38 40 41 41 37 31 29 32 33 32 32 32 30 25 27 36 33 22 22 28 31 29 25 25 24 22 21 20 20 21 20 20 20 20 21 20 21 21 21 22 22 22 22 22 22 23 23 23 21 20 18 18 18 18 18 17 16 15 15 14 14 14 14 14 14
50 48 46 46 46 45 45 43 42 44 45 44 42 41 38 37 37 37 34 29 30 33 36 38 37 32 28 29 32 31 29 30 30 29 27 31 38 40 30 23 25 32 31 24 24 25 23 22 21 20 19 18 18 19 19 20 21 21 22 22 22 23 22 23 22 23 23 23 22 21 19 18 17 17 17 17 17 17 16 15 14 14 14 14 14 14
50 48 47 48 47 46 47 44 42 45 45 44 43 38 36 38 39 37 34 29 28 29 29 30 28 26 27 27 26 25 23 25 26 26 26 27 35 39 31 21 21 28 31 24 21 25 23 21 21 18 16 16 16 18 19 21 22 23 23 22 22 22 22 22 22 22 22 21 21 19 18 17 16 16 16 16 16 16 16 16 16 15 15 14 14 14
47 41 38 45 48 47 49 46 42 46 46 43 42 37 38 43 42 38 35 33 31 30 27 24 23 22 25 26 21 17 16 18 22 25 24 25 33 37 30 23 21 25 31 26 21 23 22 19 20 18 16 16 16 18 20 22 24 24 24 23 23 23 23 23 22 21 21 20 19 18 17 17 16 15 15 14 14 14 15 16 16 17 16 15 15 15
45 37 29 34 43 45 49 50 47 47 48 45 43 42 41 43 42 38 37 35 33 29 24 24 26 24 24 27 24 18 17 19 21 25 25 25 30 33 30 26 22 24 29 27 21 21 21 21 21 19 17 17 17 19 21 23 24 25 25 24 24 23 24 23 21 20 19 19 19 18 18 17 16 15 14 13 13 13 14 15 16 16 16 16 15 15
47 44 36 28 32 40 50 54 50 48 50 50 48 46 45 43 41 39 38 37 36 31 23 18 19 16 15 22 24 20 19 21 22 23 24 26 29 31 32 30 25 23 27 28 24 21 20 22 23 22 20 19 19 20 21 22 24 25 26 25 24 23 22 21 20 20 20 20 19 19 18 18 17 16 15 15 15 15 15 16 16 16 16 17 17 17
50 42 40 33 29 38 50 53 50 47 47 49 49 48 48 44 41 41 40 39 38 37 30 20 11 9 12 16 16 15 18 21 22 22 23 26 29 31 34 33 27 24 26 28 26 21 21 24 27 25 23 21 21 20 20 21 22 23 24 24 23 22 20 19 20 20 21 21 20 20 19 19 18 17 17 16 16 16 17 17 17 18 18 18 18 19
55 39 36 38 33 33 44 46 48 49 45 45 48 46 47 46 42 42 42 40 39 37 35 27 16 12 19 21 18 18 20 21 22 22 22 26 28 31 34 34 29 24 25 27 27 25 25 28 29 27 24 22 21 20 20 20 19 20 21 22 22 21 19 20 20 20 21 20 20 20 19 19 18 18 17 17 17 18 18 18 19 19 19 19 19 19
59 46 39 43 39 32 38 41 44 47 44 45 49 48 47 47 45 43 40 38 38 35 34 32 23 18 24 27 25 23 20 21 25 25 23 25 28 30 32 32 30 25 24 26 29 28 27 29 30 26 22 21 20 19 19 19 18 19 20 21 21 20 20 21 21 20 19 18 19 19 18 18 17 17 17 17 18 19 19 20 20 19 19 18 18 17
62 57 49 48 45 38 38 39 39 46 48 47 50 51 49 46 44 43 40 37 37 35 35 33 27 25 32 32 29 24 19 21 26 26 24 25 27 29 30 30 31 29 25 26 30 30 25 26 27 24 20 20 19 18 19 19 19 20 20 21 21 20 21 21 21 20 19 18 18 18 17 17 17 17 17 17 18 19 20 20 19 18 17 16 16 16
65 66 60 55 51 44 41 41 40 47 52 50 49 52 51 47 43 41 40 39 37 36 36 32 27 28 35 33 28 25 22 21 23 22 24 27 26 27 29 31 32 31 28 27 31 32 26 23 24 22 21 20 19 17 19 20 20 20 20 20 20 20 20 19 20 20 19 19 19 18 17 17 17 17 18 18 19 19 20 20 19 18 17 16 16 15
65 70 68 62 56 47 40 38 35 36 46 50 50 51 52 50 44 40 42 41 38 37 36 30 25 26 32 33 30 26 21 19 20 22 24 27 29 30 32 34 33 32 32 30 31 33 28 22 22 22 23 23 20 18 19 20 20 19 19 19 19 19 19 19 19 18 18 18 18 17 17 17 18 19 19 19 20 20 20 20 19 17 17 17 16 14
66 70 70 65 60 50 40 38 34 31 37 44 46 47 50 51 47 44 45 42 37 37 33 27 25 23 26 35 35 27 21 19 19 20 23 27 32 33 34 35 33 34 35 31 31 33 30 23 22 25 26 25 22 20 20 21 21 21 20 20 19 19 18 18 18 17 17 17 17 17 17 18 20 20 21 21 21 21 20 20 19 18 18 17 16 14
69 70 70 66 60 53 44 40 38 37 39 39 40 41 44 48 50 50 46 41 38 38 33 30 31 29 29 38 37 27 23 22 19 20 26 33 37 36 35 35 35 34 35 33 32 33 32 27 25 27 29 27 25 23 22 23 23 22 22 21 21 20 20 19 18 17 17 17 17 17 17 19 20 21 22 22 22 21 21 20 20 19 19 18 16 15
72 70 70 67 61 55 50 45 41 42 44 42 37 35 37 42 47 49 46 40 38 39 35 31 32 33 33 37 34 26 24 25 24 24 28 31 34 35 35 36 36 35 35 34 33 34 34 32 30 30 31 30 28 27 25 24 24 24 23 22 22 22 21 20 18 17 17 16 16 17 18 19 20 21 22 23 23 22 22 22 21 20 20 18 17 16
73 69 69 70 66 62 58 52 46 44 46 43 35 32 34 37 39 43 44 41 39 40 38 32 31 33 32 28 29 29 27 29 31 29 27 28 31 34 36 37 37 37 34 33 34 35 35 35 34 33 33 32 31 30 28 27 26 25 25 24 22 21 21 20 19 18 17 16 16 17 17 18 19 21 22 24 24 24 23 23 22 21 20 19 17 17
74 72 72 74 73 69 64 57 50 47 48 48 44 42 41 37 35 37 40 42 41 40 39 36 35 36 34 28 27 30 30 33 37 33 28 30 32 34 36 39 40 38 36 35 36 37 37 37 36 35 35 35 34 33 32 31 29 28 27 25 23 22 22 21 20 19 18 17 17 17 16 16 18 19 21 24 25 24 23 23 22 21 20 19 18 18
76 76 75 76 77 73 68 62 53 48 52 56 53 51 46 36 31 32 33 37 40 38 37 38 39 41 40 35 31 32 36 40 39 33 30 31 31 30 32 37 41 41 39 39 40 40 40 39 37 38 38 37 37 36 35 34 32 31 29 28 27 25 24 23 23 22 22 20 19 18 17 16 16 17 19 21 24 24 23 23 22 21 20 19 19 19
78 79 76 77 79 75 70 65 55 50 56 60 55 50 45 37 30 28 30 33 34 36 35 34 34 37 41 43 41 41 44 44 39 34 31 29 27 26 26 31 37 41 42 43 42 40 40 40 39 38 37 37 37 36 36 35 34 33 32 30 30 28 27 26 25 25 24 23 21 20 19 18 16 16 17 19 22 23 23 23 22 21 21 21 20 19
77 78 76 76 76 75 73 68 62 60 60 57 50 45 44 43 40 37 34 29 26 29 30 29 30 33 39 45 47 46 45 43 40 36 31 26 24 23 23 25 31 37 40 42 42 39 39 40 38 34 33 35 35 34 35 35 35 34 33 32 32 32 31 29 28 27 26 25 24 22 20 19 18 18 18 19 21 22 22 22 22 22 22 21 21 20
75 74 74 75 73 73 74 72 73 73 64 54 52 49 47 49 48 46 44 35 30 36 38 37 38 40 43 47 49 48 45 42 39 34 30 27 24 22 24 25 28 33 37 39 39 38 37 38 37 33 32 34 34 33 34 35 34 34 33 33 33 33 33 32 31 30 27 27 27 25 21 19 19 20 20 20 20 20 20 21 22 23 23 22 21 21
74 72 71 74 72 71 73 73 73 67 56 54 56 50 48 53 52 48 49 49 46 47 46 46 47 47 48 51 48 45 42 38 35 31 29 28 24 23 27 28 29 32 35 37 37 35 33 34 35 34 34 35 36 35 35 35 35 35 35 34 33 33 34 34 33 31 29 28 28 26 24 21 19 20 21 21 20 19 19 21 23 24 24 23 22 22
69 70 69 71 71 69 68 68 65 54 49 59 61 48 45 54 57 54 54 55 53 44 39 46 54 53 51 50 46 42 39 36 35 33 33 34 33 32 33 32 31 32 33 34 34 31 30 31 33 33 34 35 36 35 35 35 36 37 37 36 35 34 34 34 34 32 31 30 30 28 25 21 17 17 19 20 19 18 19 22 23 24 24 23 22 21
62 65 68 71 70 67 64 62 59 49 45 54 60 55 53 55 58 61 60 57 55 47 39 44 53 54 52 48 46 46 43 40 39 38 38 41 41 39 36 34 33 33 32 31 30 27 28 30 31 31 32 34 34 33 33 34 35 36 37 38 37 36 35 35 35 34 33 32 31 30 28 23 17 15 15 16 17 18 19 21 22 22 22 22 21 21
57 60 65 69 67 65 64 58 49 37 33 38 45 53 60 60 58 62 63 60 60 57 52 51 53 55 54 49 48 49 46 42 42 42 42 44 43 40 37 36 36 35 32 31 28 27 28 29 29 28 28 29 30 30 30 32 33 35 36 36 37 38 37 37 37 36 35 34 33 32 30 25 19 16 14 14 14 16 17 18 19 20 20 21 21 21
53 56 61 66 64 62 62 59 45 29 28 36 38 41 52 58 58 60 63 64 64 62 59 58 57 56 55 52 51 52 48 44 42 41 41 41 39 38 38 38 38 37 34 32 31 31 30 28 27 27 26 25 26 26 26 27 28 30 31 31 32 33 34 36 38 38 38 37 36 34 32 28 23 20 18 17 16 16 15 16 17 18 19 20 21 21
48 53 58 64 65 61 59 60 52 34 26 35 41 40 46 52 56 61 67 68 67 66 64 61 57 54 53 53 53 52 48 46 43 40 39 38 37 37 38 39 39 38 37 35 35 34 33 30 28 28 27 25 24 23 23 24 25 26 26 25 26 27 28 32 36 39 39 39 37 35 33 30 27 24 23 22 21 19 18 17 18 19 20 20 21 22
50 50 54 60 64 62 59 61 60 45 30 33 42 43 43 47 54 62 69 69 69 69 66 61 57 57 55 53 53 53 51 49 46 43 42 40 38 38 38 39 39 38 38 38 37 36 34 32 30 29 28 26 25 24 24 25 25 25 24 23 23 23 24 27 33 37 39 39 37 35 34 32 30 28 27 26 25 23 21 20 20 21 22 22 23 24
57 53 52 54 59 61 61 61 63 55 39 36 45 48 43 44 51 58 62 63 65 66 64 59 56 57 57 54 53 54 54 52 48 46 44 42 40 39 38 39 39 39 39 40 39 37 36 33 31 30 29 27 26 25 26 27 27 27 26 25 24 23 23 26 30 34 38 39 37 36 35 33 31 31 30 29 28 27 26 25 24 24 25 26 27 27
58 59 58 55 56 60 63 63 64 60 47 42 50 55 49 46 52 56 57 57 58 60 62 60 56 56 58 57 55 55 55 53 50 48 46 44 42 41 41 39 38 38 40 41 40 38 37 35 33 32 30 29 28 27 27 28 29 29 28 27 26 26 25 25 27 30 34 36 37 36 36 34 33 33 33 32 31 29 28 29 28 28 28 29 30 30
51 57 60 59 58 60 62 64 65 63 58 54 58 60 55 51 55 59 57 56 57 57 57 57 55 54 55 57 57 56 56 55 53 50 48 46 44 43 42 40 39 40 41 42 41 40 39 37 36 34 33 32 31 29 28 28 29 29 28 28 29 28 27 26 27 28 31 34 35 36 36 35 35 35 35 34 33 32 31 31 31 31 32 33 33 33
46 50 54 58 61 60 59 61 63 64 65 66 65 62 57 54 56 60 57 55 56 56 56 56 56 54 53 54 55 56 56 56 55 52 49 47 46 44 43 41 40 40 41 41 41 40 40 39 38 37 35 34 33 32 30 29 29 29 29 29 30 29 28 27 27 28 29 32 33 35 36 37 37 37 37 37 37 36 35 34 34 34 35 36 36 35
44 48 50 52 58 62 61 60 61 64 68 72 70 65 60 59 61 61 57 53 54 55 54 55 57 57 55 53 53 54 55 55 54 53 51 49 47 46 44 42 41 40 40 40 40 40 41 40 39 38 37 36 35 34 32 30 30 30 31 31 31 30 29 28 29 29 30 31 32 34 36 38 39 39 39 40 40 39 38 38 37 37 36 36 36 37
40 45 49 50 52 58 62 62 62 63 67 70 69 65 62 64 67 64 57 54 55 55 53 52 53 56 56 54 53 54 55 55 54 53 51 49 48 47 46 43 42 41 40 38 39 40 41 41 40 39 38 37 37 36 35 33 32 31 32 32 32 31 31 30 30 30 31 31 32 34 37 38 39 40 40 39 40 40 40 40 39 38 37 37 38 42
35 38 44 50 52 53 55 58 60 63 65 68 69 67 67 70 72 69 63 60 59 58 56 54 53 54 55 54 54 54 54 54 54 53 52 50 48 48 47 45 43 43 41 39 38 40 41 41 41 40 39 39 39 38 38 36 34 33 33 33 33 33 32 32 31 31 31 31 32 34 36 38 40 40 39 38 39 41 41 41 41 41 40 40 43 47
35 36 38 45 52 54 54 56 60 65 69 72 75 76 78 78 77 74 71 70 67 64 61 59 56 55 55 54 54 55 55 56 55 53 52 51 49 48 48 46 45 44 43 41 40 40 41 41 41 41 41 41 40 40 40 39 37 36 35 35 35 34 34 33 33 32 31 31 32 33 35 36 38 39 38 37 39 40 41 42 43 43 42 42 45 48
Wind_Direction
231 229 230 232 234 235 232 230 229 227 227 225 224 229 231 232 228 208 211 229 225 219 226 221 222 225 218 231 239 235 240 247 252 257 256 251 247 250 253 256 259 253 239 244 247 243 234 220 209 199 195 194 192 189 189 193 194 192 188 187 191 193 194 195 194 195 195 193 193 191 188 183 176 172 166 162 160 162 163 164 165 164 161 157 151 136
233 232 232 232 231 232 231 229 227 225 224 224 222 222 226 234 234 215 206 228 234 229 233 228 225 225 223 227 232 245 262 254 245 258 267 261 248 247 254 256 259 257 239 243 246 240 233 223 213 202 196 195 194 193 192 192 192 193 192 190 192 195 197 198 199 199 199 198 194 190 187 184 180 177 172 169 168 169 170 170 172 173 168 166 159 144
235 234 231 229 228 228 228 225 224 224 221 222 224 219 215 223 236 226 200 211 233 232 227 231 233 232 233 231 228 247 270 267 255 261 269 264 252 245 256 260 258 256 243 239 244 243 237 227 215 205 198 196 196 195 195 194 192 191 193 194 194 198 201 201 202 202 201 201 196 190 188 187 184 181 177 175 174 174 175 175 176 176 172 168 166 149
236 233 229 230 227 226 227 224 223 223 220 219 222 222 216 211 222 228 210 212 228 232 228 228 231 234 237 238 232 232 251 266 272 271 265 261 255 244 248 253 252 251 245 242 247 247 242 232 220 210 201 197 197 197 198 198 194 192 193 196 197 200 203 204 205 204 202 201 197 192 190 190 188 184 182 181 180 178 177 178 177 177 178 177 176 163
231 226 226 226 224 224 225 224 221 221 221 220 220 222 220 212 210 211 213 223 233 240 241 234 230 232 227 225 228 224 231 253 271 273 267 256 248 242 239 242 241 243 245 249 253 246 241 237 225 215 204 198 198 198 199 200 197 195 195 197 200 203 204 206 206 204 201 199 197 195 193 193 192 189 187 185 182 180 180 181 183 184 187 189 187 182
227 225 226 224 223 221 222 222 220 219 220 221 222 221 219 217 212 203 202 211 224 235 240 235 231 234 230 221 221 218 222 233 247 259 265 263 252 241 237 243 241 240 247 254 255 240 238 241 232 222 208 196 198 200 200 201 200 198 198 199 201 204 205 205 205 202 199 198 198 197 195 195 195 192 188 184 181 182 185 187 190 193 195 197 194 191
225 225 227 226 226 222 221 221 218 217 218 219 221 221 219 219 214 206 202 206 215 225 236 241 238 237 235 228 223 218 222 235 241 244 256 264 256 238 232 242 244 244 248 255 254 242 237 240 238 230 215 197 194 201 204 203 203 201 201 203 204 206 206 204 203 200 197 199 200 200 198 197 195 192 186 185 187 188 192 194 196 201 203 204 203 199
226 227 228 227 227 224 223 223 219 217 219 219 219 220 221 221 216 210 204 208 218 223 230 240 242 239 237 234 229 222 220 229 235 238 255 266 257 239 236 239 240 243 248 252 251 242 235 233 235 232 219 200 193 199 205 206 206 205 204 205 207 208 208 205 202 200 199 200 203 203 201 200 197 193 190 191 193 192 196 201 203 208 211 210 212 211
229 229 229 228 228 226 224 222 221 219 219 219 217 219 221 221 222 217 209 207 213 220 223 225 233 242 247 247 237 229 225 225 228 227 238 257 261 250 239 237 239 244 247 248 242 231 226 224 226 227 218 202 193 195 203 207 208 208 207 206 207 208 209 207 203 201 203 204 205 206 204 203 200 197 197 197 198 198 201 207 209 213 217 216 219 220
227 227 228 228 227 227 225 221 222 222 220 218 217 220 221 221 223 223 219 214 211 216 215 208 219 233 240 243 238 237 236 231 243 239 221 239 257 257 236 227 231 241 245 246 241 226 220 218 218 221 218 206 194 192 198 205 209 211 211 210 209 209 209 208 207 206 208 209 208 208 206 205 203 202 204 204 204 205 206 211 215 218 222 223 225 226
224 224 225 226 226 225 224 222 223 223 221 220 219 221 222 222 222 222 224 223 221 226 222 210 212 221 226 230 226 232 236 222 228 241 229 233 247 253 242 223 215 230 243 247 246 237 224 219 218 220 224 219 202 193 196 201 209 213 214 215 213 212 211 209 210 210 213 214 212 211 209 206 207 208 209 210 211 212 212 216 220 223 225 227 229 229
221 222 222 223 224 223 222 223 223 222 221 221 220 221 223 224 223 222 222 223 226 233 233 224 220 223 233 239 228 223 238 237 222 219 226 235 242 249 250 243 230 231 238 244 247 244 232 219 216 217 223 223 211 199 197 201 209 213 214 217 216 215 214 212 212 214 216 218 217 216 214 211 211 214 215 216 217 218 219 221 225 229 229 230 232 232
222 224 225 223 223 222 220 222 222 222 222 221 219 220 221 222 224 224 222 224 231 236 236 232 228 232 243 249 242 229 238 251 242 220 222 234 245 249 249 253 250 238 234 241 247 246 235 219 215 215 213 214 209 201 201 204 209 213 214 217 217 216 216 215 215 217 219 221 221 220 219 216 215 219 222 223 224 224 225 226 228 232 234 236 238 239
224 225 226 225 224 222 220 220 221 223 223 221 220 220 219 220 225 227 225 227 234 237 237 235 233 240 250 252 248 241 239 248 250 235 231 243 255 254 243 245 250 244 235 235 243 247 240 223 216 214 210 207 204 202 203 205 208 212 214 215 216 216 217 218 217 219 221 223 225 224 223 222 220 224 229 230 231 231 231 231 232 234 237 240 242 244
224 224 225 226 225 222 221 221 222 226 227 223 222 223 222 224 229 230 228 230 233 237 239 239 239 246 255 257 253 249 245 246 244 236 230 244 256 251 233 239 249 248 241 231 235 245 243 232 217 209 209 205 202 203 205 207 210 213 216 214 214 215 216 217 219 221 224 225 228 228 228 228 226 228 234 237 238 239 238 237 236 236 237 239 243 246
226 226 226 227 227 225 223 222 221 226 229 226 223 224 225 228 232 233 233 235 236 239 242 244 247 251 257 260 259 253 249 247 244 237 221 223 242 247 243 248 251 248 244 232 228 237 240 238 226 211 208 205 203 205 206 210 213 217 220 218 216 216 215 215 216 219 223 226 229 230 231 232 230 230 235 240 243 245 244 243 241 240 240 241 243 246
227 226 225 226 227 227 225 222 220 224 228 228 224 225 228 230 231 231 231 234 237 239 241 245 251 256 257 256 255 254 251 249 248 244 230 220 236 251 252 247 246 246 246 236 228 234 234 231 231 219 210 211 210 209 209 213 216 219 222 222 220 220 219 218 219 220 223 227 229 232 233 235 235 234 234 238 242 247 250 250 250 250 248 248 248 249
226 227 228 228 227 229 229 223 220 225 228 231 230 227 227 230 229 227 225 226 231 235 239 244 249 255 260 257 253 253 251 249 247 246 239 224 232 250 253 241 238 242 244 239 231 236 236 230 234 228 216 218 219 216 215 215 218 221 223 225 224 223 222 223 223 224 226 230 233 236 239 241 243 242 240 239 241 246 250 254 257 257 257 257 256 256
222 226 230 232 229 229 232 226 220 224 227 231 235 232 227 228 230 229 225 224 228 231 233 236 232 235 252 261 257 250 241 237 239 240 235 221 224 241 249 241 232 231 237 239 230 234 241 238 235 229 222 224 223 222 220 218 220 223 223 224 224 225 225 225 226 227 229 233 237 240 243 246 248 249 249 247 245 245 248 251 254 258 262 265 265 265
215 217 219 234 235 231 232 227 218 220 223 224 228 230 229 229 231 233 231 228 229 230 230 236 236 230 242 256 258 255 241 226 227 233 231 220 222 234 244 241 228 223 235 239 230 232 242 243 235 227 223 225 225 225 223 220 223 225 225 224 223 225 228 229 230 231 233 236 240 243 246 248 250 251 251 251 248 248 248 250 253 257 262 266 267 268
211 211 206 217 232 232 230 225 217 217 221 221 222 225 227 227 227 230 232 230 229 226 222 229 246 254 256 257 261 266 255 231 223 231 230 223 224 230 238 240 230 225 235 239 233 232 240 242 235 225 220 223 225 227 226 224 225 227 228 227 225 226 228 230 232 233 234 237 239 243 245 246 247 246 246 247 249 251 253 254 256 258 260 263 265 266
203 208 207 203 212 226 229 224 218 219 223 225 225 226 228 227 224 225 228 229 227 226 223 213 216 252 247 237 241 251 251 235 222 226 227 221 223 228 235 241 236 225 231 238 236 231 234 237 233 225 221 222 227 230 230 230 229 230 231 230 229 228 227 228 229 231 234 235 236 238 240 241 241 241 243 247 251 255 257 259 259 260 262 264 266 267
199 199 206 199 196 220 233 228 222 222 223 227 228 227 230 231 228 226 226 228 228 225 224 217 205 228 237 230 225 227 238 238 224 223 225 218 218 225 234 244 243 227 220 230 235 230 229 233 232 228 225 224 227 231 232 233 233 234 235 234 233 230 227 226 227 229 232 234 235 235 236 239 240 242 246 250 254 257 258 260 261 263 265 266 267 270
200 196 199 194 187 204 230 234 229 225 222 225 226 224 226 230 232 232 228 229 232 228 225 218 209 220 231 229 230 231 236 237 226 221 223 218 216 223 232 243 249 237 219 223 233 233 228 230 232 232 231 230 229 229 233 234 232 232 234 236 236 233 230 228 227 228 231 233 235 236 237 239 242 245 251 255 258 260 260 261 262 263 264 265 268 271
200 198 201 197 187 192 213 225 227 223 218 219 223 223 223 224 230 234 231 229 231 230 228 221 211 222 231 229 232 235 238 242 232 221 219 220 220 224 230 239 247 245 230 222 232 235 228 229 234 235 236 239 236 230 232 237 235 234 235 236 238 237 234 232 231 231 231 232 234 236 238 241 245 250 255 258 260 262 263 264 265 264 263 263 266 270
200 198 201 197 188 189 203 213 218 219 216 214 218 223 222 218 221 228 228 226 227 228 230 224 213 224 237 238 236 233 236 244 236 218 213 217 219 220 227 233 239 244 239 226 230 236 231 226 233 235 235 241 241 231 229 236 241 241 240 240 241 241 240 238 236 235 235 236 237 239 242 245 249 252 255 258 260 262 266 267 266 264 262 263 266 269
203 200 202 198 190 189 200 212 217 220 220 217 215 220 224 218 213 220 225 225 223 225 228 224 214 224 239 243 238 231 230 235 228 212 206 212 218 222 230 232 231 237 241 232 230 237 235 225 225 231 235 239 240 231 226 232 239 242 244 244 243 244 245 244 242 242 242 243 244 245 248 251 252 253 253 255 259 262 266 268 268 265 262 263 267 270
207 203 202 200 194 189 195 206 209 210 217 222 217 216 223 222 213 214 221 222 220 222 223 214 205 213 233 239 236 227 218 219 219 207 198 209 219 222 228 232 231 235 241 239 234 238 241 234 227 231 237 240 239 233 227 229 232 235 237 239 240 241 243 245 246 246 247 250 250 249 250 251 250 251 251 253 257 261 265 267 266 263 261 264 268 270
207 203 200 198 195 192 193 199 204 207 209 215 215 211 217 223 219 216 217 217 219 221 215 207 205 206 222 237 237 226 211 213 217 204 200 214 221 218 221 229 230 232 239 240 237 238 243 245 240 238 240 241 240 237 233 232 231 231 232 234 235 236 237 240 244 246 249 252 253 251 249 248 248 248 248 251 255 259 261 263 261 258 259 263 266 268
204 203 199 197 194 193 192 192 196 204 208 207 206 206 211 220 224 222 216 211 217 222 214 210 215 215 224 239 243 230 210 209 218 218 215 225 228 223 224 228 230 233 237 239 238 238 241 245 245 243 243 243 243 242 240 238 237 236 235 234 233 233 234 238 242 246 249 250 251 250 248 248 248 246 245 247 251 254 256 257 257 256 258 261 264 267
202 202 201 198 195 193 195 196 193 197 207 206 197 197 206 214 222 225 220 211 211 219 217 211 215 217 219 230 239 232 217 211 218 222 220 223 227 226 223 223 229 234 234 234 236 236 238 240 241 243 244 244 245 246 245 245 244 244 242 241 240 239 240 242 244 248 249 247 247 248 249 251 251 246 243 243 246 249 252 254 255 256 258 262 266 269
200 202 202 199 197 196 197 201 198 195 203 205 200 197 197 200 211 220 223 217 212 217 219 215 217 218 212 212 225 230 224 220 222 224 223 224 228 228 222 218 223 229 228 227 229 231 234 237 239 241 242 243 245 247 248 249 249 250 251 250 250 250 251 254 256 257 257 254 250 249 250 253 254 251 245 242 243 246 250 253 255 257 260 264 267 268
199 201 202 201 199 197 198 202 201 197 202 208 210 207 196 190 202 214 220 219 212 212 217 217 220 223 218 213 217 224 228 229 228 228 232 235 238 238 233 227 225 225 226 227 228 230 231 234 236 238 240 241 243 245 248 250 252 253 254 255 255 256 259 261 264 266 267 265 259 253 251 252 256 257 251 245 245 247 250 254 256 257 259 262 263 265
200 201 203 203 201 197 197 203 204 201 205 211 213 210 198 187 188 204 220 226 217 211 216 220 223 229 229 222 218 223 231 234 232 232 235 240 243 244 243 240 235 232 231 232 235 235 232 231 236 239 239 240 242 244 246 248 250 252 254 255 257 259 260 262 265 268 270 270 268 261 255 252 255 258 255 250 249 251 254 256 256 255 255 257 260 263
202 202 203 205 204 200 197 202 209 209 207 209 209 207 202 191 182 185 201 220 221 211 210 214 216 223 229 226 222 225 231 233 233 234 236 237 238 237 235 237 239 238 239 240 243 245 241 239 244 246 244 244 245 246 247 248 249 252 253 255 256 257 260 262 264 267 267 268 271 269 261 253 249 251 252 251 252 255 257 257 255 253 253 254 257 258
202 203 205 205 205 204 201 202 211 215 212 209 209 210 208 202 195 190 186 188 199 202 201 202 202 209 220 225 225 226 229 231 232 232 232 232 233 234 231 229 231 234 239 243 245 248 248 248 251 254 253 251 251 252 252 251 252 254 255 256 256 255 257 259 262 265 265 263 267 271 269 258 248 246 248 248 250 254 258 257 254 252 251 252 254 254
204 204 206 206 206 207 205 203 208 214 215 213 211 213 214 207 202 198 189 183 189 197 200 202 203 209 221 227 228 227 227 230 231 228 225 224 226 231 231 228 227 228 232 238 241 244 246 248 251 255 255 255 254 255 254 253 254 256 257 258 257 256 256 257 259 263 262 259 260 267 271 267 255 247 245 245 246 248 251 252 250 249 252 254 254 254
207 206 206 207 207 208 207 206 207 210 216 216 212 212 219 211 200 199 197 190 190 197 203 205 208 215 223 227 230 232 228 226 226 222 215 213 218 226 226 225 226 226 229 234 238 242 244 246 248 249 249 251 252 253 254 254 254 256 257 258 258 257 256 256 258 260 259 257 256 260 267 270 261 251 246 242 239 239 243 247 249 251 254 256 256 254
207 207 208 208 207 207 206 206 205 207 214 218 214 213 222 217 204 201 203 199 198 207 216 213 212 218 224 225 229 231 225 221 221 217 210 210 217 224 226 227 228 229 231 236 239 241 241 242 244 244 244 246 248 250 252 253 254 255 256 256 256 256 255 255 256 257 256 255 253 255 262 265 255 248 250 243 235 235 240 245 249 251 254 257 259 260
210 208 208 209 208 207 206 202 199 201 207 213 213 215 222 224 215 207 206 206 209 215 220 217 215 220 224 224 228 230 227 222 220 214 209 210 215 220 225 229 232 233 234 238 240 241 238 238 240 241 241 242 243 245 246 247 248 250 251 251 251 251 251 250 251 252 252 252 252 253 258 259 248 243 248 245 238 237 238 242 246 250 255 259 262 263
213 211 209 208 208 208 205 198 189 186 195 201 204 210 217 221 222 216 212 213 217 219 219 218 219 223 224 222 225 230 229 225 219 212 211 213 215 217 222 228 233 236 237 238 238 238 237 236 236 237 237 236 236 236 237 237 239 242 244 246 245 245 243 242 244 247 248 250 251 252 255 253 246 241 243 242 241 239 239 243 248 252 256 260 262 263
210 213 212 209 207 206 205 200 191 181 189 198 201 208 213 214 217 219 218 218 219 220 221 221 222 225 225 224 225 228 229 226 219 213 213 215 214 216 220 225 230 234 236 237 236 234 234 233 232 232 233 233 232 232 232 233 235 237 241 243 243 242 239 235 236 240 244 248 250 251 253 250 243 242 243 242 241 241 241 247 252 254 258 262 263 264
209 211 213 213 210 206 205 204 198 191 192 199 199 204 213 215 216 218 220 221 221 221 223 224 224 223 223 223 224 226 228 228 221 216 215 215 212 214 219 223 227 230 233 235 235 235 234 233 230 231 232 231 231 230 230 231 233 236 239 241 242 242 238 231 231 234 239 245 247 249 250 246 240 240 243 244 243 242 242 245 249 253 258 262 264 264
214 211 212 213 213 209 207 207 204 198 199 204 202 200 205 212 217 218 219 221 222 222 223 223 223 223 222 222 223 225 227 227 222 218 219 218 216 215 218 222 226 228 231 234 235 236 237 236 234 233 233 233 232 230 230 231 234 237 240 241 242 243 239 234 231 232 236 242 245 247 246 243 238 239 243 245 246 244 242 244 247 251 256 260 263 266
219 217 214 210 210 210 209 211 208 203 202 208 210 206 204 208 215 217 217 219 221 223 223 222 222 222 221 220 222 224 226 226 224 220 221 222 221 218 217 221 224 227 230 233 235 236 238 238 238 238 237 236 235 233 232 232 234 237 239 241 242 243 241 238 236 234 235 239 242 243 243 241 239 241 243 245 248 249 248 248 250 252 255 259 262 265
219 221 220 216 213 212 211 214 214 208 206 211 214 212 209 210 215 217 216 215 217 220 221 220 221 222 222 220 220 222 224 226 226 223 222 223 224 221 219 220 223 226 230 233 234 236 238 239 239 240 239 239 238 236 235 235 236 237 239 240 241 242 241 241 240 237 236 237 239 240 240 240 241 242 244 247 250 251 251 251 252 254 256 259 261 264
218 221 222 222 220 217 214 215 216 213 211 213 216 215 212 212 217 220 219 216 216 218 219 219 220 222 222 221 220 222 223 225 227 226 224 224 225 224 223 223 224 227 230 232 233 235 237 238 239 239 240 240 240 239 237 236 237 238 238 239 240 241 241 242 242 241 239 239 239 240 240 241 242 244 246 248 251 252 252 252 253 253 255 257 260 263
216 219 220 221 222 221 218 217 219 220 217 216 217 218 217 217 219 221 220 220 220 220 220 221 221 222 222 221 220 222 223 224 226 227 226 225 225 226 226 226 227 229 231 232 233 234 236 237 238 239 240 241 241 241 240 239 239 239 239 239 241 242 243 243 243 243 242 242 241 241 241 242 244 246 248 250 252 254 255 256 257 259 259 260 263 266
216 219 220 220 222 223 222 220 222 225 224 221 220 220 221 222 223 221 219 220 221 221 221 222 221 221 222 221 220 221 223 224 226 227 227 226 226 227 228 228 229 230 231 232 232 234 235 236 237 239 240 241 242 242 242 241 240 241 241 242 243 243 244 245 245 244 244 243 243 242 242 243 245 247 250 252 254 256 258 258 259 262 263 263 263 264
216 219 221 221 222 223 222 222 223 225 225 224 223 222 222 224 224 223 221 221 221 221 222 223 224 224 223 222 221 221 222 224 227 228 228 228 228 229 230 231 231 231 231 230 231 233 235 235 236 237 238 240 241 242 243 242 242 241 242 243 244 245 246 247 248 248 246 245 243 242 243 244 245 247 250 252 253 255 257 257 257 259 261 262 263 263
217 219 221 222 223 223 222 221 222 223 224 223 223 222 222 223 224 224 224 225 225 224 224 225 226 226 226 225 224 222 223 225 227 229 230 231 231 232 232 232 232 233 232 231 230 232 234 235 235 236 237 239 240 241 242 243 243 242 242 242 244 245 245 246 247 249 249 248 246 245 244 243 244 247 250 251 251 252 253 254 255 257 259 261 263 265
Height
5843 5843 5845 5850 5853 5856 5858 5860 5863 5866 5866 5868 5870 5872 5874 5876 5877 5881 5885 5886 5885 5885 5884 5885 5886 5887 5890 5890 5886 5886 5888 5888 5887 5885 5885 5890 5893 5893 5893 5894 5892 5892 5892 5894 5895 5895 5895 5895 5895 5896 5897 5899 5900 5902 5904 5906 5908 5910 5911 5913 5915 5917 5919 5921 5921 5922 5923 5924 5925 5927 5928 5929 5930 5931 5932 5933 5934 5935 5936 5937 5937 5938 5939 5939 5940 5940
5838 5841 5846 5850 5851 5852 5854 5857 5859 5861 5863 5865 5867 5869 5873 5875 5876 5879 5883 5885 5884 5883 5884 5885 5885 5886 5888 5890 5888 5885 5885 5887 5888 5886 5883 5885 5891 5891 5891 5892 5892 5891 5892 5894 5895 5895 5895 5895 5895 5896 5897 5898 5900 5901 5903 5905 5907 5909 5911 5912 5914 5916 5918 5920 5920 5921 5923 5924 5925 5927 5928 5929 5930 5931 5932 5933 5934 5935 5936 5937 5938 5938 5939 5939 5940 5941
5836 5842 5847 5847 5847 5848 5849 5852 5855 5857 5860 5862 5863 5866 5870 5873 5876 5877 5880 5885 5884 5882 5884 5885 5884 5884 5885 5887 5889 5888 5885 5884 5887 5889 5884 5882 5887 5891 5890 5890 5891 5892 5892 5894 5895 5894 5894 5895 5896 5896 5897 5898 5899 5900 5902 5904 5905 5908 5910 5912 5914 5916 5917 5919 5920 5921 5923 5924 5926 5927 5928 5929 5930 5931 5932 5934 5935 5935 5936 5937 5938 5939 5939 5940 5941 5941
5837 5842 5843 5842 5843 5844 5845 5848 5851 5853 5855 5857 5860 5862 5866 5870 5874 5877 5879 5883 5883 5882 5884 5884 5883 5884 5885 5886 5888 5890 5888 5885 5885 5887 5886 5882 5883 5889 5890 5890 5891 5892 5893 5894 5895 5893 5893 5894 5896 5896 5896 5897 5898 5900 5902 5904 5905 5907 5909 5911 5913 5915 5916 5918 5920 5921 5923 5924 5926 5927 5928 5929 5930 5931 5933 5934 5935 5935 5936 5937 5938 5939 5939 5940 5941 5942
5835 5839 5837 5837 5839 5840 5842 5844 5847 5849 5852 5854 5857 5859 5864 5867 5871 5875 5879 5882 5882 5880 5881 5882 5882 5882 5883 5885 5886 5889 5890 5888 5885 5883 5883 5882 5881 5886 5890 5890 5891 5891 5892 5894 5893 5892 5892 5895 5896 5896 5896 5896 5898 5900 5901 5903 5905 5907 5908 5910 5912 5913 5915 5917 5919 5921 5923 5924 5926 5927 5928 5929 5930 5931 5932 5933 5934 5935 5936 5937 5938 5939 5940 5940 5941 5942
5833 5834 5832 5833 5835 5837 5839 5841 5843 5846 5849 5851 5853 5857 5861 5864 5867 5871 5875 5878 5880 5879 5878 5879 5880 5879 5879 5881 5883 5887 5888 5888 5887 5882 5880 5880 5879 5883 5888 5889 5889 5890 5890 5891 5891 5891 5892 5894 5896 5897 5896 5895 5897 5899 5901 5902 5904 5905 5907 5909 5911 5912 5914 5916 5918 5921 5922 5924 5925 5926 5927 5928 5930 5931 5932 5933 5934 5936 5936 5937 5938 5939 5940 5940 5941 5942
5828 5828 5829 5831 5833 5835 5836 5837 5840 5843 5845 5847 5851 5855 5859 5860 5864 5867 5871 5874 5876 5877 5878 5877 5876 5877 5878 5878 5880 5884 5885 5886 5887 5884 5880 5878 5877 5880 5885 5887 5887 5888 5889 5889 5890 5891 5892 5894 5897 5898 5897 5895 5895 5898 5900 5902 5904 5905 5907 5908 5910 5912 5914 5916 5918 5920 5922 5923 5924 5926 5927 5928 5929 5931 5932 5933 5934 5935 5936 5937 5938 5939 5940 5940 5941 5942
5824 5825 5826 5829 5831 5832 5833 5835 5838 5841 5842 5845 5849 5853 5855 5857 5859 5862 5866 5870 5872 5876 5877 5876 5874 5874 5875 5876 5877 5879 5882 5884 5885 5885 5882 5876 5874 5878 5883 5885 5887 5888 5889 5889 5889 5890 5892 5894 5895 5898 5898 5894 5893 5896 5899 5902 5904 5906 5907 5908 5910 5912 5914 5916 5918 5920 5921 5922 5924 5925 5926 5928 5929 5931 5932 5933 5934 5935 5936 5937 5938 5939 5939 5940 5941 5942
5822 5823 5824 5826 5827 5829 5831 5834 5836 5838 5839 5843 5847 5848 5850 5853 5855 5858 5861 5864 5868 5871 5871 5873 5875 5872 5871 5873 5874 5875 5877 5880 5881 5884 5884 5878 5872 5875 5879 5883 5885 5887 5888 5889 5889 5891 5892 5893 5893 5895 5896 5893 5892 5895 5898 5902 5904 5905 5907 5908 5909 5911 5914 5916 5917 5919 5920 5921 5923 5924 5926 5927 5929 5930 5931 5933 5934 5935 5936 5937 5938 5939 5939 5940 5941 5941
5817 5819 5820 5822 5824 5826 5829 5832 5833 5835 5837 5841 5844 5844 5847 5850 5852 5855 5857 5858 5861 5861 5860 5867 5872 5872 5870 5870 5871 5873 5873 5876 5879 5881 5883 5880 5873 5873 5876 5880 5883 5884 5885 5888 5889 5891 5891 5891 5891 5892 5894 5893 5892 5893 5896 5900 5903 5905 5907 5908 5910 5911 5914 5916 5917 5919 5919 5920 5922 5924 5925 5927 5929 5930 5931 5932 5934 5935 5936 5937 5938 5939 5939 5940 5941 5941
5812 5814 5815 5817 5820 5823 5827 5829 5830 5832 5836 5838 5840 5841 5844 5846 5848 5851 5853 5856 5856 5851 5853 5861 5865 5866 5865 5865 5869 5872 5872 5874 5878 5880 5882 5879 5872 5871 5874 5878 5883 5883 5883 5886 5888 5889 5889 5889 5889 5891 5894 5896 5894 5893 5895 5899 5902 5905 5907 5909 5910 5912 5913 5915 5917 5918 5919 5920 5922 5923 5925 5927 5929 5930 5931 5932 5933 5934 5936 5937 5938 5939 5939 5940 5941 5941
5806 5807 5809 5812 5816 5820 5823 5825 5827 5829 5832 5834 5835 5838 5840 5842 5845 5847 5849 5851 5848 5846 5851 5857 5859 5859 5858 5860 5867 5870 5870 5871 5874 5878 5880 5876 5871 5871 5872 5875 5880 5883 5883 5885 5886 5888 5887 5887 5887 5889 5893 5896 5896 5895 5895 5899 5902 5904 5907 5908 5910 5912 5913 5915 5916 5917 5919 5920 5922 5923 5925 5927 5929 5930 5931 5932 5933 5934 5936 5937 5938 5938 5939 5940 5941 5941
5802 5804 5807 5810 5813 5817 5819 5821 5823 5825 5826 5828 5831 5833 5836 5839 5840 5840 5842 5844 5843 5845 5850 5854 5855 5854 5852 5857 5864 5866 5867 5867 5870 5874 5875 5872 5870 5871 5872 5873 5876 5880 5882 5882 5883 5886 5886 5885 5885 5887 5891 5895 5896 5895 5895 5898 5901 5903 5906 5908 5910 5912 5913 5914 5916 5917 5918 5920 5921 5923 5925 5927 5928 5929 5930 5932 5933 5934 5935 5936 5937 5938 5939 5940 5940 5941
5799 5801 5804 5807 5810 5813 5815 5816 5818 5819 5822 5825 5827 5830 5833 5834 5833 5835 5839 5841 5842 5845 5848 5851 5852 5849 5850 5856 5860 5863 5865 5866 5867 5869 5871 5871 5868 5868 5870 5871 5871 5874 5879 5881 5881 5884 5885 5884 5884 5887 5890 5892 5893 5893 5894 5897 5900 5902 5904 5906 5908 5910 5912 5914 5915 5916 5918 5919 5921 5922 5924 5926 5928 5929 5930 5931 5933 5934 5935 5936 5937 5938 5938 5939 5940 5941
5793 5795 5799 5803 5805 5808 5810 5812 5815 5818 5820 5823 5826 5828 5829 5830 5830 5834 5837 5839 5841 5844 5846 5848 5847 5847 5850 5854 5857 5860 5862 5863 5865 5866 5869 5871 5867 5865 5868 5870 5869 5870 5875 5880 5882 5884 5884 5883 5884 5886 5888 5890 5891 5892 5893 5896 5899 5901 5903 5905 5907 5909 5911 5912 5914 5916 5917 5919 5920 5922 5924 5926 5927 5929 5929 5931 5932 5933 5935 5935 5936 5937 5938 5938 5939 5940
5787 5791 5797 5800 5801 5804 5808 5811 5814 5816 5816 5819 5823 5824 5825 5828 5831 5834 5836 5838 5841 5843 5844 5844 5843 5846 5850 5852 5853 5856 5858 5859 5861 5863 5868 5870 5866 5863 5866 5869 5868 5867 5871 5877 5881 5884 5885 5884 5885 5886 5886 5887 5889 5890 5893 5896 5899 5901 5903 5904 5906 5907 5909 5911 5912 5914 5916 5918 5919 5921 5923 5925 5926 5928 5929 5930 5932 5933 5934 5935 5935 5936 5937 5938 5939 5939
5783 5788 5793 5794 5796 5800 5803 5807 5811 5812 5812 5815 5818 5821 5825 5828 5830 5832 5835 5838 5840 5840 5841 5841 5842 5845 5847 5848 5849 5851 5854 5856 5857 5859 5863 5866 5863 5859 5863 5868 5868 5865 5867 5874 5879 5883 5884 5885 5884 5885 5884 5885 5887 5890 5893 5896 5898 5900 5902 5903 5905 5907 5908 5910 5912 5913 5915 5917 5919 5921 5923 5924 5926 5927 5929 5930 5931 5932 5933 5934 5935 5935 5936 5937 5938 5938
5780 5785 5787 5789 5793 5796 5798 5803 5808 5808 5810 5812 5815 5821 5825 5825 5826 5829 5832 5835 5836 5837 5839 5841 5842 5843 5843 5843 5846 5848 5850 5852 5853 5855 5858 5862 5860 5856 5859 5866 5867 5865 5865 5871 5877 5878 5879 5881 5881 5882 5882 5884 5886 5889 5892 5895 5897 5899 5901 5903 5905 5906 5908 5910 5911 5913 5915 5917 5918 5920 5922 5924 5925 5927 5928 5929 5930 5931 5932 5933 5934 5934 5935 5935 5936 5937
5776 5781 5784 5784 5788 5792 5793 5798 5803 5804 5806 5810 5813 5818 5821 5819 5821 5825 5829 5831 5833 5835 5838 5839 5841 5843 5842 5841 5843 5846 5848 5849 5851 5851 5854 5858 5857 5854 5856 5862 5865 5865 5864 5868 5874 5874 5875 5877 5878 5879 5881 5883 5886 5889 5891 5894 5896 5897 5899 5901 5904 5905 5907 5908 5910 5912 5914 5916 5918 5920 5921 5923 5924 5925 5927 5928 5930 5931 5932 5932 5932 5933 5933 5934 5935 5935
5770 5775 5781 5782 5783 5786 5786 5789 5794 5798 5801 5806 5809 5811 5813 5815 5819 5823 5826 5829 5831 5833 5836 5837 5838 5841 5842 5841 5841 5843 5844 5846 5847 5848 5850 5854 5854 5853 5854 5858 5863 5865 5864 5866 5871 5872 5874 5876 5877 5879 5881 5883 5885 5887 5889 5892 5894 5896 5898 5900 5902 5904 5906 5908 5910 5912 5914 5915 5917 5919 5920 5921 5923 5924 5926 5927 5928 5929 5930 5931 5931 5932 5932 5933 5933 5934
5764 5767 5775 5780 5781 5779 5777 5781 5789 5794 5796 5800 5803 5805 5807 5811 5816 5820 5822 5825 5828 5831 5834 5836 5838 5840 5841 5840 5839 5840 5841 5843 5844 5845 5848 5850 5852 5853 5853 5855 5861 5864 5864 5865 5868 5871 5874 5876 5877 5878 5880 5882 5884 5886 5888 5890 5892 5894 5897 5899 5901 5903 5905 5907 5909 5911 5913 5914 5916 5917 5919 5920 5921 5923 5924 5925 5926 5927 5928 5929 5930 5930 5931 5931 5931 5932
5757 5762 5769 5775 5777 5775 5773 5779 5788 5792 5794 5797 5800 5803 5804 5808 5813 5816 5817 5821 5824 5828 5831 5834 5838 5840 5838 5837 5839 5839 5839 5840 5842 5843 5845 5847 5850 5851 5852 5852 5857 5862 5863 5863 5866 5870 5874 5875 5876 5877 5878 5880 5883 5885 5887 5889 5891 5893 5895 5897 5899 5901 5904 5906 5907 5909 5911 5912 5914 5915 5917 5918 5920 5921 5923 5924 5925 5926 5926 5927 5928 5928 5929 5929 5930 5930
5752 5757 5762 5767 5772 5775 5774 5777 5782 5787 5791 5794 5797 5801 5803 5805 5810 5812 5814 5818 5820 5824 5828 5831 5836 5837 5835 5835 5838 5838 5837 5838 5840 5841 5842 5845 5847 5849 5850 5850 5853 5859 5862 5862 5863 5868 5872 5873 5874 5875 5877 5879 5882 5884 5886 5887 5890 5891 5893 5895 5897 5900 5902 5904 5905 5907 5908 5910 5912 5913 5915 5916 5918 5920 5921 5922 5923 5924 5925 5925 5926 5927 5927 5928 5928 5928
5744 5749 5753 5759 5766 5773 5775 5774 5775 5780 5785 5788 5790 5796 5799 5802 5806 5809 5813 5817 5818 5822 5825 5828 5832 5832 5830 5832 5834 5835 5836 5836 5837 5839 5840 5843 5846 5847 5848 5849 5850 5855 5860 5861 5861 5865 5869 5872 5873 5874 5876 5878 5881 5883 5885 5887 5889 5890 5892 5894 5896 5898 5900 5901 5903 5905 5906 5908 5910 5911 5913 5915 5917 5918 5920 5921 5922 5922 5923 5924 5924 5925 5926 5926 5927 5927
5732 5739 5745 5752 5759 5766 5769 5768 5768 5771 5776 5781 5784 5789 5794 5799 5803 5806 5811 5814 5816 5819 5822 5825 5829 5827 5825 5829 5832 5834 5836 5834 5834 5837 5839 5841 5844 5846 5848 5848 5848 5850 5856 5859 5859 5861 5867 5870 5871 5873 5875 5877 5880 5883 5884 5886 5888 5889 5891 5893 5895 5896 5898 5899 5901 5903 5905 5907 5908 5910 5912 5914 5915 5916 5918 5918 5919 5920 5921 5922 5923 5923 5924 5925 5925 5925
5725 5730 5735 5743 5751 5757 5761 5760 5761 5765 5770 5776 5780 5783 5788 5795 5799 5802 5806 5809 5811 5815 5818 5822 5826 5824 5823 5827 5830 5832 5834 5833 5833 5836 5838 5840 5842 5844 5846 5846 5846 5848 5852 5856 5857 5858 5864 5869 5870 5872 5874 5875 5878 5881 5883 5885 5887 5889 5891 5892 5893 5895 5896 5898 5900 5902 5904 5905 5907 5909 5910 5912 5913 5914 5915 5916 5917 5918 5918 5919 5921 5921 5922 5923 5923 5924
5719 5723 5727 5736 5745 5752 5758 5759 5762 5766 5768 5771 5776 5779 5783 5790 5797 5799 5802 5805 5808 5812 5815 5819 5823 5823 5822 5824 5827 5830 5831 5832 5832 5835 5836 5837 5839 5841 5842 5843 5846 5847 5849 5853 5855 5856 5861 5866 5869 5870 5871 5873 5876 5879 5882 5883 5885 5888 5889 5891 5892 5894 5895 5897 5899 5900 5902 5904 5906 5908 5909 5910 5911 5912 5913 5913 5914 5915 5916 5917 5918 5919 5920 5920 5921 5922
5713 5719 5726 5735 5740 5745 5751 5755 5758 5762 5764 5768 5774 5777 5780 5786 5792 5795 5797 5802 5806 5809 5813 5817 5820 5821 5820 5820 5822 5827 5830 5831 5832 5834 5835 5835 5836 5838 5840 5842 5845 5847 5848 5851 5854 5855 5857 5863 5867 5868 5869 5871 5874 5877 5880 5882 5884 5886 5887 5889 5891 5892 5894 5895 5897 5899 5901 5902 5904 5906 5907 5908 5908 5909 5910 5911 5912 5913 5914 5915 5916 5917 5917 5918 5919 5919
5702 5711 5722 5731 5737 5740 5744 5749 5753 5756 5759 5763 5769 5774 5777 5781 5786 5790 5794 5800 5803 5806 5811 5815 5816 5817 5817 5816 5819 5826 5829 5830 5831 5832 5832 5831 5833 5836 5839 5841 5844 5846 5847 5849 5852 5854 5855 5859 5864 5866 5867 5869 5872 5874 5877 5879 5882 5884 5886 5887 5889 5891 5892 5894 5895 5897 5899 5900 5902 5903 5904 5905 5906 5907 5908 5908 5910 5911 5912 5912 5913 5914 5915 5915 5916 5917
5695 5708 5720 5727 5732 5734 5737 5743 5748 5752 5755 5758 5764 5772 5776 5778 5782 5787 5792 5798 5800 5803 5807 5812 5813 5815 5815 5814 5817 5824 5827 5827 5828 5829 5829 5829 5832 5836 5838 5840 5842 5844 5846 5848 5851 5853 5855 5857 5861 5863 5865 5867 5869 5872 5874 5877 5879 5882 5884 5886 5888 5889 5891 5893 5894 5896 5897 5898 5899 5900 5901 5902 5903 5904 5905 5906 5907 5908 5909 5910 5910 5911 5912 5913 5914 5914
5693 5704 5712 5719 5723 5725 5731 5738 5741 5746 5752 5756 5761 5768 5774 5777 5779 5783 5788 5794 5797 5799 5803 5808 5810 5812 5814 5814 5815 5820 5824 5824 5823 5825 5827 5829 5831 5833 5837 5840 5841 5842 5845 5848 5850 5852 5853 5855 5858 5860 5863 5865 5867 5870 5872 5875 5877 5879 5881 5883 5886 5888 5889 5891 5893 5894 5895 5896 5897 5898 5899 5900 5900 5901 5902 5903 5904 5905 5906 5907 5908 5909 5910 5911 5912 5912
5686 5692 5699 5709 5716 5722 5730 5735 5738 5743 5747 5749 5752 5758 5766 5773 5777 5780 5784 5789 5793 5795 5799 5804 5805 5808 5812 5812 5812 5816 5819 5819 5819 5822 5826 5827 5827 5830 5834 5837 5838 5839 5843 5845 5846 5848 5851 5853 5856 5859 5861 5863 5865 5867 5870 5872 5874 5877 5879 5881 5884 5886 5887 5889 5891 5892 5893 5894 5895 5895 5896 5897 5898 5898 5900 5901 5902 5903 5904 5905 5906 5907 5908 5909 5910 5910
5678 5683 5692 5700 5709 5720 5728 5730 5734 5738 5738 5741 5746 5753 5761 5770 5776 5780 5782 5785 5790 5793 5796 5799 5801 5803 5808 5810 5810 5812 5814 5815 5817 5821 5823 5824 5825 5829 5832 5834 5835 5837 5839 5840 5842 5845 5848 5851 5854 5856 5858 5860 5863 5865 5867 5869 5872 5874 5876 5879 5881 5883 5885 5887 5889 5890 5891 5892 5893 5894 5894 5895 5895 5896 5897 5898 5899 5901 5902 5903 5904 5905 5906 5907 5907 5908
5672 5679 5687 5693 5701 5714 5722 5724 5726 5728 5730 5737 5746 5754 5759 5765 5773 5781 5782 5782 5786 5790 5793 5797 5799 5801 5803 5806 5806 5807 5809 5812 5815 5818 5820 5822 5825 5828 5830 5832 5833 5834 5835 5836 5838 5841 5845 5847 5849 5851 5855 5858 5860 5863 5865 5867 5870 5871 5873 5876 5878 5881 5883 5885 5886 5888 5889 5890 5891 5892 5892 5893 5893 5894 5894 5896 5897 5898 5899 5901 5902 5903 5904 5904 5905 5906
5670 5677 5683 5689 5697 5707 5715 5718 5717 5720 5727 5735 5743 5751 5755 5758 5764 5772 5777 5781 5785 5789 5792 5796 5798 5797 5795 5797 5801 5802 5805 5809 5812 5816 5819 5821 5823 5826 5828 5831 5832 5832 5833 5834 5836 5838 5841 5844 5846 5849 5853 5855 5857 5860 5863 5865 5867 5869 5871 5873 5876 5878 5880 5882 5884 5885 5887 5888 5888 5889 5890 5891 5892 5892 5892 5893 5894 5896 5897 5898 5899 5900 5902 5902 5903 5904
5667 5673 5677 5684 5692 5700 5707 5711 5712 5718 5728 5733 5737 5743 5748 5753 5758 5763 5769 5776 5781 5784 5786 5788 5790 5789 5787 5790 5794 5798 5802 5806 5810 5814 5817 5820 5822 5824 5826 5827 5828 5830 5830 5832 5833 5835 5838 5842 5844 5847 5851 5853 5855 5858 5860 5862 5864 5866 5869 5870 5873 5875 5877 5879 5881 5883 5885 5886 5886 5887 5888 5889 5889 5890 5890 5891 5892 5893 5895 5896 5897 5898 5899 5900 5901 5902
5664 5669 5674 5681 5688 5693 5700 5706 5711 5719 5725 5728 5734 5739 5742 5749 5756 5760 5764 5767 5769 5774 5779 5780 5781 5781 5782 5785 5790 5795 5800 5804 5808 5813 5816 5819 5821 5821 5821 5822 5824 5826 5827 5828 5829 5831 5835 5840 5842 5845 5848 5851 5852 5855 5857 5859 5861 5864 5866 5868 5870 5872 5874 5876 5878 5880 5882 5883 5884 5884 5885 5886 5887 5887 5888 5889 5890 5891 5892 5893 5894 5895 5896 5898 5899 5900
5662 5667 5671 5677 5683 5689 5696 5703 5710 5716 5718 5722 5730 5734 5734 5741 5751 5754 5757 5760 5762 5766 5770 5772 5774 5777 5779 5783 5787 5791 5797 5801 5804 5808 5812 5814 5814 5813 5815 5818 5820 5821 5822 5823 5825 5829 5834 5837 5839 5842 5845 5847 5848 5851 5853 5856 5858 5860 5863 5865 5867 5869 5871 5873 5875 5877 5879 5880 5881 5882 5882 5883 5884 5884 5885 5886 5887 5888 5890 5890 5892 5893 5894 5895 5896 5897
5659 5664 5667 5672 5679 5685 5692 5699 5705 5712 5714 5718 5725 5727 5726 5732 5742 5747 5751 5755 5756 5757 5761 5767 5771 5773 5775 5780 5783 5785 5791 5796 5799 5802 5806 5808 5808 5810 5813 5816 5817 5818 5820 5822 5825 5829 5832 5834 5835 5838 5841 5843 5845 5847 5850 5852 5854 5856 5858 5861 5863 5865 5867 5870 5872 5873 5875 5876 5877 5879 5880 5881 5882 5882 5883 5884 5885 5886 5887 5888 5889 5891 5892 5892 5893 5894
5654 5658 5663 5670 5677 5682 5688 5695 5702 5709 5712 5713 5718 5720 5721 5727 5736 5742 5746 5748 5748 5752 5757 5762 5764 5765 5769 5777 5779 5780 5786 5790 5793 5796 5801 5803 5805 5809 5812 5814 5815 5817 5819 5822 5825 5827 5829 5831 5832 5835 5837 5839 5842 5844 5846 5848 5850 5851 5854 5856 5857 5860 5863 5866 5868 5869 5871 5872 5874 5876 5877 5878 5880 5880 5881 5882 5882 5883 5884 5886 5887 5888 5889 5890 5890 5891
5650 5654 5660 5667 5674 5680 5685 5690 5696 5703 5707 5708 5710 5712 5714 5720 5727 5734 5738 5740 5744 5749 5752 5753 5757 5760 5766 5773 5774 5775 5780 5785 5789 5796 5800 5802 5805 5809 5811 5811 5813 5815 5817 5820 5823 5824 5825 5828 5830 5832 5834 5836 5838 5841 5842 5844 5846 5847 5849 5851 5853 5855 5858 5861 5863 5865 5866 5868 5870 5872 5874 5875 5877 5878 5878 5879 5880 5881 5882 5883 5884 5885 5886 5887 5888 5889
5647 5651 5656 5662 5668 5675 5682 5685 5689 5695 5699 5701 5703 5705 5707 5711 5716 5721 5727 5732 5737 5741 5743 5747 5754 5759 5762 5767 5770 5772 5777 5783 5789 5794 5797 5800 5803 5806 5807 5809 5810 5812 5814 5816 5818 5820 5822 5825 5828 5829 5831 5833 5835 5838 5840 5841 5843 5844 5846 5847 5849 5851 5853 5856 5858 5860 5862 5864 5866 5868 5870 5872 5873 5874 5875 5876 5877 5878 5879 5880 5881 5882 5883 5884 5885 5886
5643 5648 5653 5658 5663 5670 5675 5678 5683 5687 5687 5688 5694 5699 5702 5705 5708 5712 5719 5723 5727 5731 5737 5744 5750 5753 5757 5763 5767 5770 5774 5778 5783 5788 5792 5795 5799 5802 5803 5805 5806 5808 5810 5812 5814 5817 5820 5822 5824 5826 5828 5831 5833 5835 5837 5838 5840 5841 5843 5845 5846 5848 5850 5852 5854 5856 5858 5860 5862 5864 5866 5868 5869 5871 5872 5873 5874 5875 5876 5877 5878 5879 5880 5881 5881 5882
5639 5644 5648 5653 5659 5665 5668 5671 5676 5680 5680 5680 5685 5691 5696 5699 5703 5709 5715 5717 5721 5728 5734 5740 5744 5749 5754 5760 5763 5766 5768 5772 5778 5784 5787 5791 5795 5798 5799 5801 5803 5805 5807 5808 5811 5814 5816 5818 5821 5823 5825 5827 5830 5832 5833 5835 5837 5838 5840 5842 5844 5845 5847 5848 5850 5852 5854 5856 5858 5860 5862 5864 5865 5867 5868 5869 5870 5871 5872 5873 5874 5875 5876 5877 5877 5878
5633 5637 5640 5645 5650 5655 5659 5662 5668 5674 5675 5674 5679 5686 5691 5694 5698 5704 5710 5714 5720 5725 5730 5734 5740 5744 5749 5754 5758 5761 5764 5768 5774 5779 5782 5786 5789 5793 5796 5798 5800 5802 5803 5805 5808 5810 5812 5815 5817 5819 5821 5824 5826 5828 5830 5832 5833 5835 5837 5839 5841 5842 5844 5845 5847 5849 5851 5852 5854 5856 5858 5859 5861 5862 5864 5865 5866 5867 5868 5869 5870 5871 5872 5873 5873 5874
5628 5632 5637 5641 5644 5648 5653 5657 5662 5668 5670 5668 5673 5682 5689 5691 5693 5698 5704 5711 5717 5721 5725 5731 5736 5740 5744 5749 5754 5757 5761 5764 5768 5773 5777 5781 5784 5788 5792 5795 5797 5798 5799 5801 5805 5807 5808 5811 5813 5815 5818 5820 5822 5825 5827 5829 5830 5832 5834 5836 5837 5838 5840 5842 5844 5846 5847 5849 5850 5852 5853 5855 5857 5858 5859 5860 5862 5863 5863 5864 5865 5866 5867 5868 5869 5870
5624 5627 5632 5636 5640 5645 5649 5652 5655 5660 5662 5664 5670 5679 5685 5688 5691 5696 5703 5708 5712 5716 5721 5725 5730 5735 5740 5745 5750 5754 5757 5759 5763 5768 5772 5776 5780 5783 5787 5790 5792 5794 5795 5798 5801 5803 5805 5807 5809 5812 5814 5816 5818 5821 5823 5825 5826 5828 5830 5831 5832 5834 5837 5838 5840 5842 5843 5845 5846 5848 5849 5851 5852 5854 5855 5856 5857 5857 5859 5860 5861 5862 5862 5863 5864 5865
5619 5621 5625 5630 5634 5638 5642 5647 5650 5652 5656 5662 5670 5677 5681 5684 5688 5694 5701 5705 5708 5712 5716 5720 5725 5730 5735 5741 5746 5750 5753 5755 5759 5763 5768 5772 5776 5779 5782 5785 5788 5790 5791 5794 5797 5799 5801 5803 5806 5808 5810 5812 5814 5816 5818 5820 5822 5824 5825 5827 5829 5831 5833 5834 5836 5837 5839 5840 5842 5844 5845 5846 5848 5849 5850 5851 5852 5852 5854 5856 5856 5857 5858 5859 5860 5861
5615 5618 5623 5627 5629 5632 5638 5644 5647 5650 5656 5664 5671 5677 5679 5679 5682 5688 5695 5698 5703 5708 5712 5716 5721 5726 5731 5736 5742 5745 5749 5752 5756 5759 5763 5768 5771 5774 5777 5780 5783 5785 5788 5790 5793 5795 5797 5799 5802 5804 5806 5808 5810 5811 5814 5816 5818 5819 5821 5823 5825 5827 5828 5830 5832 5833 5835 5836 5838 5839 5840 5842 5843 5844 5845 5846 5847 5849 5850 5852 5852 5853 5854 5855 5856 5855
5614 5617 5620 5622 5625 5629 5635 5640 5643 5646 5650 5656 5662 5667 5668 5667 5671 5680 5687 5692 5697 5703 5707 5711 5717 5721 5726 5732 5737 5742 5746 5749 5752 5755 5759 5764 5767 5770 5772 5776 5779 5781 5784 5786 5789 5791 5793 5795 5798 5800 5802 5804 5806 5807 5809 5812 5814 5816 5817 5819 5821 5822 5824 5825 5827 5829 5831 5832 5834 5835 5836 5837 5838 5839 5840 5842 5843 5844 5845 5847 5848 5848 5849 5850 5849 5848
5611 5613 5614 5616 5619 5623 5627 5631 5633 5635 5639 5643 5648 5651 5653 5657 5665 5674 5681 5687 5692 5697 5702 5708 5713 5717 5722 5727 5732 5737 5742 5745 5748 5752 5755 5758 5762 5765 5768 5771 5774 5777 5779 5782 5785 5786 5788 5791 5793 5796 5798 5800 5801 5804 5805 5808 5810 5812 5814 5815 5817 5818 5820 5821 5822 5824 5826 5827 5829 5830 5831 5832 5833 5834 5836 5837 5839 5839 5840 5841 5842 5842 5843 5844 5844 5843